सभी
Jabiru Airport (Jabiru, Northern Territory) JAB मौसम
|
Jabiru, Northern Territory (YJAB)
Partly cloudy
हल्की हवाएं |
|
28 °C |
JAB Terminal Area Forecast
| Date | Time (ACST) | Flight Rules | Wind Dir. | Speed | Type | Height AGL (ft) | Visibility | Remarks | ||||||
|---|---|---|---|---|---|---|---|---|---|---|---|---|---|---|
Recent JAB METAR history
| Date | Time (ACST) | Flight Rules | Wind Dir. | Speed | Type | Height AGL (ft) | Visibility | Temp (°C) | Temp (°F) | Dew Point (°C) | Dew Point (°F) | Rel. Humid. | Pressure | Density Altitude | Remarks |
|---|---|---|---|---|---|---|---|---|---|---|---|---|---|---|---|
| 04-मई | 22:30 | VFR | 320° | 4 kt | Broken |
6,800 |
10000 meters | 28° | 82° | 24° | 75° | 79% | 1012 mb | 1,680 ft | |
| 04-मई | 21:30 | VFR | 330° | 5 kt | 10000 meters | 28° | 82° | 23° | 73° | 74% | 1012 mb | 1,680 ft | |||
| 04-मई | 20:30 | VFR | 100° | 3 kt | 10000 meters | 30° | 86° | 20° | 68° | 55% | 1012 mb | 1,920 ft | |||
| 04-मई | 19:30 | VFR | 90° | 3 kt | Broken |
7,000 |
10000 meters | 31° | 87° | 20° | 68° | 52% | 1011 mb | 2,069 ft | |
| 04-मई | 18:30 | VFR | 110° | 4 kt | 10000 meters | 32° | 89° | 19° | 66° | 46% | 1010 mb | 2,219 ft | |||
| 04-मई | 17:30 | VFR | 100° | 4 kt | 10000 meters | 34° | 93° | 18° | 64° | 39% | 1009 mb | 2,488 ft | |||
| 04-मई | 16:30 | VFR | 100° | 7 kt | 10000 meters | 35° | 95° | 18° | 64° | 37% | 1009 mb | 2,608 ft | |||
| 04-मई | 15:30 | VFR | 130° | 7 kt | 10000 meters | 35° | 95° | 17° | 62° | 34% | 1009 mb | 2,608 ft | |||
| 04-मई | 14:30 | VFR | 90° | 8 kt | 10000 meters | 35° | 95° | 17° | 62° | 34% | 1009 mb | 2,608 ft | |||
| 04-मई | 13:30 | VFR | 80° | 6 kt | 10000 meters | 35° | 95° | 19° | 66° | 39% | 1010 mb | 2,579 ft | |||
| 04-मई | 12:30 | VFR | 120° | 7 kt | 10000 meters | 34° | 93° | 18° | 64° | 39% | 1011 mb | 2,429 ft | |||
| 04-मई | 11:30 | VFR | 90° | 7 kt | 10000 meters | 33° | 91° | 21° | 69° | 49% | 1012 mb | 2,280 ft | |||
| 04-मई | 10:30 | VFR | 110° | 4 kt | 10000 meters | 32° | 89° | 22° | 71° | 56% | 1012 mb | 2,160 ft | |||
| 04-मई | 09:30 | VFR | 90° | 6 kt | 10000 meters | 29° | 84° | 22° | 71° | 66% | 1012 mb | 1,800 ft | |||
| 04-मई | 08:30 | VFR | 110° | 3 kt | 10000 meters | 27° | 80° | 23° | 73° | 79% | 1012 mb | 1,560 ft | |||
| 04-मई | 07:30 | VFR | Calm | 10000 meters | 23° | 73° | 23° | 73° | 100% | 1011 mb | 1,109 ft | ||||
| 04-मई | 06:30 | VFR | 210° | 2 kt | 10000 meters | 23° | 73° | 23° | 73° | 100% | 1011 mb | 1,109 ft | |||
| 04-मई | 05:30 | VFR | Calm | 10000 meters | 24° | 75° | 23° | 73° | 94% | 1010 mb | 1,259 ft | ||||
| 04-मई | 04:30 | VFR | Calm | 10000 meters | 24° | 75° | 24° | 75° | 100% | 1010 mb | 1,259 ft | ||||
| 04-मई | 03:30 | VFR | 210° | 3 kt | 10000 meters | 25° | 77° | 24° | 75° | 94% | 1010 mb | 1,379 ft | |||
| 04-मई | 02:30 | VFR | Calm | 10000 meters | 25° | 77° | 24° | 75° | 94% | 1010 mb | 1,379 ft | ||||
| 04-मई | 01:30 | VFR | 210° | 2 kt | 10000 meters | 25° | 77° | 24° | 75° | 94% | 1011 mb | 1,349 ft | |||
| 04-मई | 00:30 | VFR | 230° | 5 kt | 10000 meters | 26° | 78° | 24° | 75° | 89% | 1011 mb | 1,469 ft | |||
| 03-मई | 23:30 | VFR | Calm | 10000 meters | 26° | 78° | 24° | 75° | 89% | 1011 mb | 1,469 ft |
लॉगिन
| Your browser is unsupported. अपना ब्राऊजर अपग्रेड करें |
